CZ-6A DEB

Satellite information

Favourite Embed

Satellite Type and Status

DEBRISIN ORBIT

Key statistics

Satellite CZ-6A DEB at a glance.

Uptime

334

Days in orbit

Revolutions

≈ 14.3

Per day

Orbit

LEO

Low Earth Orbit

Inclination

89.1

Latest

Satellite identification and parameters

Extended collection of information and parameters for CZ-6A DEB.

Object identification

Identified? True

Debris? True

Object name: CZ-6A DEB

International designator: 2024-140VP

Object number (NORAD): 61350

Object ID (CCSDS): 61350

Country: PEOPLES REPUBLIC OF CHINA (PRC)

Current information (Y/N): Y

RCS size: SMALL

Orbital parameters

Period: 100.992 minutes

Inclination: 89.1283 deg

SMA: 7183.755 km

Apoapsis: 862.733 km

Periapsis: 748.507 km

RAAN: 318.3305 deg

Eccentricy: 0.0079503

Argument of periapsis: 287.4264 deg

Mean anomaly: 71.8248 deg

Mean motion: 14.25855411 rev/day

Mean motion (dot): 0.00002027 rev/day2

B* drag term: 0.00081937 1/REarth

Two-line elements (TLE)

Creation date: July 5, 2025, 10:56 p.m.

Reference frame: TEME

Reference center: EARTH

Epoch: July 5, 2025, 7:26 p.m. UTC

TLE line 0: 0 CZ-6A DEB

TLE line 1: 1 61350U 24140VP 25186.81032841 .00002027 00000-0 81937-3 0 9997

TLE line 2: 2 61350 89.1283 318.3305 0079503 287.4264 71.8248 14.25855411 43528

Live tracking on map

Real-time ground track for satellite CZ-6A DEB.

In-orbit conjunctions

A list of the most updated potential collisions computed for object CZ-6A DEB.

Target Orbit TCA Probability of collision Miss distance Type
COSMOS 2150 LEO 2024-12-27 11:08:15 0.003406132 243.0 (m) PAYLOAD
DELTA 1 R/B SSO 2024-11-24 23:02:52 0.0002163126 561.0 (m) ROCKET BODY
FENGYUN 1C DEB SSO 2024-11-19 10:51:41 0.0002864563 597.0 (m) DEBRIS
SL-16 DEB LEO 2024-11-16 19:31:06 0.0001476545 919.0 (m) DEBRIS

Associated space launch

18 Low Earth Orbit communication satellites with Ku, Q and V band payloads for the G60 constellation operated by Shanghai Spacecom Satellite Technology (SSST) with funding backed by the Shanghai local government. Initial constellation will consist of 1296 satellites by 2027 with long term plans to expand it to 12000 satellites.

CZ-6A DEB was lifted into orbit during the mission ‘Long March 6A | G60 Polar Group 01’, on board a Long March 6A space rocket.

The launch took place on Aug. 6, 2024, 6:42 a.m. from Launch Complex 9A.

For more information about the launch, click the button.

Launch to space Long March 6A | G60 Polar Group 01
Long March 6A | G60 Polar Group 01

Agency: N/A

Status: Launch Successful

Launch date: Aug. 6, 2024, 6:42 a.m. UTC

Rocket: Long March 6A

Launch pad: Launch Complex 9A

Location: Taiyuan Satellite Launch Center, People's Republic of China

...

Latest news about this satellite

News about space launch
Brightness of first Chinese broadband constellation satellites alarms astronomers

The first satellites of a Chinese broadband constellation are significantly brighter than those of Western systems, posing a new challenge for astronomers.

News about space launch
Chinese rocket stage breaks up into cloud of more than 700 pieces of space debris

HELSINKI — A Chinese Long March 6A rocket’s upper stage has fragmented into a cloud of over 700 pieces of space debris, adding to concerns about long-term orbital safety. China […]

News about space launch
China's Thousand Sails Megaconstellation Kicks Off with Dangerous Debris Field

China's Thousand Sails Megaconstellation Kicks Off with Dangerous Debris Field


Newsletter sign-up

Weekly statistics, charts and insights to help you stay on top of the space industry.